TimeEET,TemperatureF,Dew PointF,Humidity,Sea Level PressureIn,VisibilityMPH,Wind Direction,Wind SpeedMPH,Gust SpeedMPH,PrecipitationIn,Events,Conditions,WindDirDegrees,DateUTC
12:00 AM,64.4,44.6,49,30.04,-9999.0,East,10.4,-,N/A,,Clear,100,2012-11-29 22:00:00
12:30 AM,64.4,44.6,49,30.04,-9999.0,East,10.4,-,N/A,,Clear,100,2012-11-29 22:30:00
1:00 AM,64.4,46.4,52,30.01,-9999.0,ESE,12.7,-,N/A,,Clear,110,2012-11-29 23:00:00
1:30 AM,62.6,46.4,55,30.01,-9999.0,ESE,12.7,-,N/A,,Clear,110,2012-11-29 23:30:00
2:00 AM,63,45,41,30.01,6,ESE,11.5,,,,Clear,110,2012-11-30 00:00:00
2:00 AM,62.6,44.6,52,30.01,-9999.0,ESE,11.5,-,N/A,,Clear,110,2012-11-30 00:00:00
2:30 AM,62.6,44.6,52,30.01,-9999.0,ESE,8.1,-,N/A,,Clear,120,2012-11-30 00:30:00
3:00 AM,62.6,42.8,48,30.01,-9999.0,SE,6.9,-,N/A,,Clear,140,2012-11-30 01:00:00
3:30 AM,62.6,44.6,52,30.01,-9999.0,West,2.3,-,N/A,,Clear,260,2012-11-30 01:30:00
4:00 AM,60.8,42.8,52,30.01,-9999.0,Calm,Calm,-,N/A,,Clear,0,2012-11-30 02:00:00
4:30 AM,60.8,42.8,52,30.01,-9999.0,Calm,Calm,-,N/A,,Clear,0,2012-11-30 02:30:00
5:00 AM,60.8,44.6,55,30.01,-9999.0,East,2.3,-,N/A,,Clear,100,2012-11-30 03:00:00
5:30 AM,60.8,44.6,55,30.01,-9999.0,East,2.3,-,N/A,,Clear,100,2012-11-30 03:30:00
6:00 AM,59.0,42.8,55,30.04,-9999.0,SSW,2.3,-,N/A,,Clear,200,2012-11-30 04:00:00
6:30 AM,57.2,41.0,55,30.04,-9999.0,SSE,3.5,-,N/A,,Clear,150,2012-11-30 04:30:00
7:00 AM,59.0,41.0,51,30.04,-9999.0,SSE,3.5,-,N/A,,Clear,150,2012-11-30 05:00:00
7:30 AM,62.6,42.8,48,30.06,-9999.0,East,2.3,-,N/A,,Clear,100,2012-11-30 05:30:00
8:00 AM,64,43,34,30.07,6,SSE,2.3,,,,,160,2012-11-30 06:00:00
8:00 AM,64.4,42.8,45,30.06,-9999.0,SSE,2.3,-,N/A,,Clear,160,2012-11-30 06:00:00
8:30 AM,66.2,41.0,40,30.06,-9999.0,NE,3.5,-,N/A,,Clear,50,2012-11-30 06:30:00
9:00 AM,66.2,42.8,43,30.06,-9999.0,NNE,2.3,-,N/A,,Clear,30,2012-11-30 07:00:00
9:30 AM,69.8,41.0,35,30.06,-9999.0,NNE,3.5,-,N/A,,Clear,30,2012-11-30 07:30:00
10:00 AM,71.6,42.8,35,30.06,-9999.0,ENE,3.5,-,N/A,,Clear,60,2012-11-30 08:00:00
10:30 AM,73.4,42.8,33,30.06,-9999.0,NNE,2.3,-,N/A,,Clear,20,2012-11-30 08:30:00
11:00 AM,77.0,42.8,29,30.06,-9999.0,NNE,2.3,-,N/A,,Clear,30,2012-11-30 09:00:00
11:30 AM,77.0,41.0,28,30.04,-9999.0,NW,2.3,-,N/A,,Clear,320,2012-11-30 09:30:00
12:00 PM,77.0,41.0,28,30.04,-9999.0,NW,2.3,-,N/A,,Clear,320,2012-11-30 10:00:00
12:30 PM,78.8,39.2,24,30.04,-9999.0,NW,2.3,-,N/A,,Clear,320,2012-11-30 10:30:00
1:00 PM,78.8,35.6,21,30.01,-9999.0,NW,4.6,-,N/A,,Clear,320,2012-11-30 11:00:00
1:30 PM,78.8,32.0,18,30.01,-9999.0,SW,3.5,-,N/A,,Clear,230,2012-11-30 11:30:00
2:00 PM,80,44,18,30.01,6,SW,5.8,,,,Clear,230,2012-11-30 12:00:00
2:00 PM,80.6,44.6,28,30.01,-9999.0,SW,5.8,-,N/A,,Clear,230,2012-11-30 12:00:00
2:30 PM,78.8,32.0,18,30.01,-9999.0,SW,5.8,-,N/A,,Clear,230,2012-11-30 12:30:00
3:00 PM,80.6,44.6,28,30.01,-9999.0,WSW,5.8,-,N/A,,Clear,250,2012-11-30 13:00:00
3:30 PM,78.8,44.6,30,30.01,-9999.0,WSW,5.8,-,N/A,,Clear,250,2012-11-30 13:30:00
4:00 PM,78.8,35.6,21,30.01,-9999.0,West,3.5,-,N/A,,Clear,260,2012-11-30 14:00:00
4:05 PM,78.8,35.6,21,30.01,2.5,NW,6.9,-,N/A,,Haze,310,2012-11-30 14:05:00
4:30 PM,77.0,33.8,21,30.01,-9999.0,WSW,2.3,-,N/A,,Clear,240,2012-11-30 14:30:00
5:00 PM,75.2,44.6,34,30.01,1.2,NNW,5.8,-,N/A,,Haze,340,2012-11-30 15:00:00
5:30 PM,73.4,42.8,33,30.04,1.2,NNE,5.8,-,N/A,,Haze,30,2012-11-30 15:30:00
6:00 PM,71.6,42.8,35,30.04,2.5,ENE,4.6,-,N/A,,Haze,70,2012-11-30 16:00:00
6:30 PM,71.6,42.8,35,30.04,3.7,ENE,6.9,-,N/A,,Unknown,70,2012-11-30 16:30:00
7:00 PM,69.8,42.8,38,30.04,3.7,East,10.4,-,N/A,,Unknown,80,2012-11-30 17:00:00
7:30 PM,69.8,42.8,38,30.04,3.7,East,10.4,-,N/A,,Unknown,80,2012-11-30 17:30:00
8:00 PM,68,42,27,30.06,6,East,6.9,,,,,90,2012-11-30 18:00:00
8:00 PM,68.0,41.0,37,30.06,-9999.0,East,6.9,-,N/A,,Clear,90,2012-11-30 18:00:00
8:30 PM,68.0,41.0,37,30.06,-9999.0,East,6.9,-,N/A,,Clear,90,2012-11-30 18:30:00
9:00 PM,66.2,37.4,35,30.06,-9999.0,East,6.9,-,N/A,,Clear,90,2012-11-30 19:00:00
9:30 PM,66.2,37.4,35,30.06,-9999.0,East,6.9,-,N/A,,Clear,90,2012-11-30 19:30:00
10:00 PM,68.0,35.6,30,30.04,-9999.0,ESE,11.5,-,N/A,,Clear,110,2012-11-30 20:00:00
10:30 PM,68.0,35.6,30,30.04,-9999.0,ESE,11.5,-,N/A,,Clear,110,2012-11-30 20:30:00
11:00 PM,68.0,35.6,30,30.06,-9999.0,ESE,12.7,-,N/A,,Clear,110,2012-11-30 21:00:00
11:30 PM,68.0,35.6,30,30.06,-9999.0,ESE,12.7,-,N/A,,Clear,110,2012-11-30 21:30:00